AFR282 LFPG-RJTT

Flight info

Callsign AFR282
Flight time N/A
Altitude 29000
Route LANVI DCT BEGAR DCT TRA DCT GAMSA DCT BIRGI DCT INGID DCT SETAL DCT INSAX DCT GOTAR DCT MOPUG DCT ASNEL DCT UDROS/N0491F310 UN743 GAKSU UT310 SIN UN644 ROLIN DCT FOQUS DCT DF DCT TBS N61 DEDON L850 ADEKI DCT RASAM L88 METKA B476 TIMGA A480 OTBOR/K0922F310 N147 PIDWO/K0911F330 N147 ELAHA Z621 ARBOL M610 RULAD/K0902S1010 A343 POSOT B215 FKG W188 LIKMI W270 BUVEM/K0898S1070 W270 DKO W69 HUR B339 LADIX W34 VAPGU W100 ORAVA W201 UNSEK A326 DONVO G597 AGAVO/N0492F350 Y644 EGOBA G597 LANAT Y71 XAC
Aircraft B77W/H-SDE1E2E3FGHIJ2J3J4J5M1RWXY/LB1D1

Departure

Time 2026-05-05 22:30
Airport Charles de Gaulle International Airport (LFPG)

Arrival

Time N/A
Airport Tokyo Haneda International Airport (RJTT)
Time Latitude Longitude Altitude Speed Heading
2026-05-05 21:43 49.00393 2.58975 359 ft 0 kts 84°
2026-05-05 22:14 49.00393 2.58971 359 ft 3 kts 84°
2026-05-05 22:14 49.00391 2.58919 367 ft 4 kts 86°
2026-05-05 22:14 49.00390 2.58884 365 ft 4 kts 111°
2026-05-05 22:15 49.00405 2.58860 368 ft 4 kts 167°
2026-05-05 22:15 49.00423 2.58856 363 ft 4 kts 176°
2026-05-05 22:15 49.00436 2.58854 367 ft 1 kts 175°
2026-05-05 22:15 49.00437 2.58854 367 ft 0 kts 175°
2026-05-05 22:20 49.00434 2.58854 364 ft 3 kts 175°
2026-05-05 22:20 49.00359 2.58864 359 ft 17 kts 175°
2026-05-05 22:20 49.00244 2.58878 360 ft 17 kts 175°
2026-05-05 22:21 49.00132 2.58892 364 ft 17 kts 175°
2026-05-05 22:21 49.00056 2.58887 361 ft 9 kts 206°
2026-05-05 22:21 49.00034 2.58798 359 ft 9 kts 255°
2026-05-05 22:21 48.99990 2.58740 360 ft 9 kts 191°
2026-05-05 22:22 48.99943 2.58679 365 ft 9 kts 253°
2026-05-05 22:22 48.99935 2.58585 359 ft 9 kts 265°
2026-05-05 22:22 48.99929 2.58457 365 ft 18 kts 265°
2026-05-05 22:22 48.99916 2.58247 365 ft 20 kts 264°
2026-05-05 22:23 48.99905 2.58036 361 ft 20 kts 266°
2026-05-05 22:23 48.99896 2.57823 359 ft 20 kts 264°
2026-05-05 22:23 48.99882 2.57611 361 ft 20 kts 265°
2026-05-05 22:23 48.99870 2.57401 364 ft 20 kts 265°
2026-05-05 22:24 48.99858 2.57191 363 ft 20 kts 265°
2026-05-05 22:24 48.99847 2.56982 364 ft 20 kts 265°
2026-05-05 22:24 48.99837 2.56770 359 ft 20 kts 266°
2026-05-05 22:24 48.99828 2.56558 365 ft 20 kts 266°
2026-05-05 22:25 48.99815 2.56349 367 ft 20 kts 263°
2026-05-05 22:25 48.99800 2.56138 366 ft 20 kts 265°
2026-05-05 22:25 48.99800 2.55926 365 ft 20 kts 280°
2026-05-05 22:25 48.99836 2.55722 362 ft 20 kts 287°
2026-05-05 22:26 48.99897 2.55533 361 ft 20 kts 277°
2026-05-05 22:26 48.99884 2.55346 365 ft 12 kts 263°
2026-05-05 22:26 48.99876 2.55221 364 ft 12 kts 268°
2026-05-05 22:26 48.99874 2.55096 365 ft 12 kts 266°
2026-05-05 22:27 48.99808 2.55056 366 ft 12 kts 163°
2026-05-05 22:27 48.99729 2.55092 362 ft 12 kts 163°
2026-05-05 22:27 48.99689 2.55112 359 ft 0 kts 155°
2026-05-05 22:28 48.99674 2.55127 368 ft 6 kts 141°
2026-05-05 22:29 48.99633 2.55220 365 ft 15 kts 110°
2026-05-05 22:29 48.99594 2.55338 364 ft 12 kts 118°
2026-05-05 22:29 48.99587 2.55526 363 ft 28 kts 83°
2026-05-05 22:29 48.99620 2.56118 360 ft 93 kts 85°
2026-05-05 22:30 48.99695 2.57465 359 ft 162 kts 86°
2026-05-05 22:30 48.99804 2.59441 452 ft 207 kts 83°
2026-05-05 22:30 48.99897 2.61658 1029 ft 213 kts 82°
2026-05-05 22:30 49.00004 2.63797 2060 ft 204 kts 79°
2026-05-05 22:31 49.00127 2.66001 2396 ft 218 kts 81°
2026-05-05 22:31 49.00263 2.68375 2584 ft 233 kts 83°
2026-05-05 22:31 49.00399 2.70771 2931 ft 244 kts 83°
2026-05-05 22:31 49.00537 2.73443 3190 ft 260 kts 83°
2026-05-05 22:32 49.00679 2.76241 3620 ft 268 kts 83°
2026-05-05 22:32 49.00719 2.79094 4115 ft 274 kts 96°
2026-05-05 22:32 49.00420 2.81999 4620 ft 281 kts 101°
2026-05-05 22:32 49.00048 2.84958 5154 ft 287 kts 100°
2026-05-05 22:33 48.99698 2.87946 5831 ft 287 kts 99°
2026-05-05 22:33 48.99368 2.90947 6461 ft 288 kts 99°
2026-05-05 22:33 48.99044 2.93981 6962 ft 293 kts 99°
2026-05-05 22:33 48.98727 2.97066 7511 ft 296 kts 98°
2026-05-05 22:34 48.98459 3.00182 8111 ft 298 kts 98°
2026-05-05 22:34 48.98209 3.03254 8649 ft 300 kts 97°
2026-05-05 22:34 48.97955 3.06379 9192 ft 303 kts 98°
2026-05-05 22:34 48.97694 3.09561 9667 ft 308 kts 98°
2026-05-05 22:35 48.97424 3.12816 10106 ft 314 kts 98°
2026-05-05 22:35 48.97140 3.16204 10247 ft 331 kts 98°
2026-05-05 22:35 48.96842 3.19723 10384 ft 348 kts 98°
2026-05-05 22:35 48.96523 3.23475 10536 ft 365 kts 98°
2026-05-05 22:36 48.96192 3.27368 10887 ft 376 kts 98°
2026-05-05 22:36 48.95851 3.31359 11350 ft 383 kts 98°
2026-05-05 22:36 48.95504 3.35406 11936 ft 386 kts 99°
2026-05-05 22:36 48.95156 3.39437 12570 ft 389 kts 99°
2026-05-05 22:37 48.94801 3.43541 13197 ft 392 kts 99°
2026-05-05 22:37 48.94448 3.47609 13764 ft 395 kts 99°
2026-05-05 22:37 48.94083 3.51776 14295 ft 399 kts 99°
2026-05-05 22:37 48.93721 3.55977 14828 ft 402 kts 98°
2026-05-05 22:38 48.93458 3.60062 15362 ft 405 kts 96°
2026-05-05 22:38 48.93241 3.64354 15936 ft 408 kts 96°
2026-05-05 22:38 48.93038 3.68671 16491 ft 410 kts 96°
2026-05-05 22:38 48.92829 3.73005 17039 ft 413 kts 96°
2026-05-05 22:39 48.92608 3.77385 17592 ft 416 kts 96°
2026-05-05 22:39 48.92380 3.81731 18126 ft 419 kts 96°
2026-05-05 22:39 48.92139 3.86227 18617 ft 421 kts 96°
2026-05-05 22:39 48.91899 3.90609 19128 ft 422 kts 96°
2026-05-05 22:40 48.91654 3.95049 19650 ft 424 kts 96°
2026-05-05 22:40 48.91406 3.99515 20156 ft 425 kts 96°
2026-05-05 22:40 48.91158 4.03949 20638 ft 427 kts 96°
2026-05-05 22:40 48.90903 4.08469 21120 ft 429 kts 96°
2026-05-05 22:41 48.90647 4.13018 21597 ft 431 kts 96°
2026-05-05 22:41 48.90389 4.17523 22070 ft 433 kts 96°
2026-05-05 22:41 48.90053 4.22071 22475 ft 433 kts 103°
2026-05-05 22:41 48.89010 4.26330 22766 ft 432 kts 121°
2026-05-05 22:42 48.87481 4.30215 23067 ft 435 kts 121°
2026-05-05 22:42 48.85934 4.34227 23450 ft 438 kts 121°
2026-05-05 22:42 48.84435 4.38211 23838 ft 439 kts 120°
2026-05-05 22:42 48.82940 4.42240 24249 ft 439 kts 120°
2026-05-05 22:43 48.81443 4.46302 24610 ft 441 kts 120°
2026-05-05 22:43 48.79950 4.50365 24932 ft 443 kts 120°
2026-05-05 22:43 48.78442 4.54465 25265 ft 445 kts 120°
2026-05-05 22:43 48.76941 4.58543 25617 ft 447 kts 120°
2026-05-05 22:44 48.75429 4.62641 25931 ft 449 kts 120°
2026-05-05 22:44 48.73896 4.66788 26234 ft 451 kts 120°
2026-05-05 22:44 48.72360 4.70937 26575 ft 453 kts 120°
2026-05-05 22:44 48.70826 4.75070 26887 ft 454 kts 120°
2026-05-05 22:45 48.69295 4.79189 27177 ft 456 kts 120°
2026-05-05 22:45 48.67711 4.83445 27465 ft 458 kts 120°
2026-05-05 22:45 48.66167 4.87587 27748 ft 460 kts 120°
2026-05-05 22:45 48.64588 4.91816 28024 ft 462 kts 120°
2026-05-05 22:46 48.63000 4.96062 28293 ft 463 kts 120°
2026-05-05 22:46 48.61411 5.00303 28547 ft 465 kts 120°
2026-05-05 22:46 48.59894 5.04347 28746 ft 467 kts 120°
2026-05-05 22:47 48.56693 5.12859 28814 ft 473 kts 120°
2026-05-05 22:47 48.53421 5.21531 28825 ft 476 kts 121°
2026-05-05 22:48 48.50138 5.30207 28826 ft 477 kts 121°
2026-05-05 22:48 48.46829 5.38916 28827 ft 478 kts 121°
2026-05-05 22:49 48.43538 5.47553 28831 ft 478 kts 121°
2026-05-05 22:49 48.40360 5.55868 28832 ft 477 kts 121°
2026-05-05 22:50 48.37048 5.64509 28832 ft 475 kts 123°
2026-05-05 22:50 48.33829 5.72885 28842 ft 474 kts 123°
2026-05-05 22:51 48.30622 5.81520 28845 ft 474 kts 116°
2026-05-05 22:51 48.28575 5.90567 28859 ft 476 kts 110°
2026-05-05 22:52 48.26653 6.00153 28872 ft 483 kts 110°
2026-05-05 22:52 48.24611 6.09845 28864 ft 489 kts 112°
2026-05-05 22:53 48.22488 6.19531 28861 ft 492 kts 112°
2026-05-05 22:53 48.20324 6.29277 28855 ft 492 kts 113°
2026-05-05 22:54 48.18171 6.38943 28845 ft 489 kts 113°
2026-05-05 22:54 48.16032 6.48510 28859 ft 487 kts 113°
2026-05-05 22:55 48.13864 6.58165 28853 ft 489 kts 113°
2026-05-05 22:55 48.11681 6.67840 28861 ft 491 kts 113°
2026-05-05 22:56 48.09501 6.77461 28871 ft 493 kts 113°
2026-05-05 22:56 48.07284 6.87205 28847 ft 494 kts 112°
2026-05-05 22:57 48.05057 6.96945 28857 ft 495 kts 112°
2026-05-05 22:57 48.02825 7.06667 28864 ft 496 kts 112°
2026-05-05 22:58 48.00593 7.16343 28861 ft 496 kts 113°
2026-05-05 22:58 47.98342 7.26058 28842 ft 496 kts 112°
2026-05-05 22:59 47.96083 7.35763 28859 ft 495 kts 113°
2026-05-05 22:59 47.93810 7.45483 28864 ft 496 kts 113°
2026-05-05 23:00 47.90771 7.58424 28870 ft 496 kts 113°
2026-05-05 23:00 47.87982 7.69666 28888 ft 497 kts 114°
2026-05-05 23:01 47.85520 7.79301 28895 ft 498 kts 114°
2026-05-05 23:01 47.83476 7.87328 28878 ft 499 kts 114°
2026-05-05 23:02 47.81018 7.96989 28886 ft 499 kts 114°
2026-05-05 23:02 47.78563 8.06608 28888 ft 498 kts 114°
2026-05-05 23:03 47.76115 8.16161 28957 ft 500 kts 114°
2026-05-05 23:03 47.74874 8.20986 29236 ft 500 kts 114°
2026-05-05 23:03 47.73645 8.25756 29632 ft 498 kts 114°
2026-05-05 23:04 47.72409 8.30546 30007 ft 496 kts 114°
2026-05-05 23:04 47.71181 8.35294 30306 ft 494 kts 114°
2026-05-05 23:04 47.69948 8.40053 30554 ft 494 kts 115°
2026-05-05 23:04 47.68710 8.44820 30712 ft 496 kts 115°
2026-05-05 23:05 47.66439 8.54507 30872 ft 499 kts 112°
2026-05-05 23:05 47.64296 8.64246 30913 ft 499 kts 112°
2026-05-05 23:06 47.62110 8.74006 30913 ft 497 kts 112°
2026-05-05 23:06 47.59897 8.83684 30882 ft 496 kts 113°
2026-05-05 23:07 47.57664 8.93356 30904 ft 496 kts 114°
2026-05-05 23:07 47.55438 9.02963 30904 ft 497 kts 114°
2026-05-05 23:08 47.53184 9.12658 30904 ft 499 kts 114°
2026-05-05 23:08 47.50916 9.22376 30875 ft 500 kts 114°
2026-05-05 23:09 47.48636 9.32098 30893 ft 502 kts 114°
2026-05-05 23:09 47.46335 9.41869 30911 ft 503 kts 114°
2026-05-05 23:10 47.44076 9.51425 30912 ft 504 kts 115°
2026-05-05 23:10 47.41855 9.61119 30881 ft 507 kts 110°
2026-05-05 23:11 47.40616 9.71440 30913 ft 516 kts 99°
2026-05-05 23:11 47.40412 9.82077 30906 ft 520 kts 95°
2026-05-05 23:12 47.40285 9.92237 30899 ft 519 kts 96°
2026-05-05 23:12 47.40111 10.02786 30865 ft 519 kts 96°
2026-05-05 23:13 47.39916 10.12570 30904 ft 518 kts 96°
2026-05-05 23:13 47.39692 10.22970 30899 ft 519 kts 96°
2026-05-05 23:14 47.39460 10.33430 30917 ft 519 kts 96°
2026-05-05 23:14 47.39229 10.43809 30889 ft 520 kts 96°
2026-05-05 23:15 47.38974 10.54308 30831 ft 518 kts 96°
2026-05-05 23:15 47.38724 10.64428 30881 ft 518 kts 96°
2026-05-05 23:16 47.38457 10.74921 30931 ft 516 kts 97°
2026-05-05 23:16 47.38180 10.85442 30926 ft 517 kts 97°